Time,TemperatureF,DewpointF,PressureIn,WindDirection,WindDirectionDegrees,WindSpeedMPH,WindSpeedGustMPH,Humidity,HourlyPrecipIn,Conditions,Clouds,dailyrainin,SolarRadiationWatts/m^2,SoftwareType,DateUTC
2013-09-15 00:04:00,51.9,44.6,29.91,West,262,0.0,1.0,76,0.00,,,0.00,0,Wunderground v.1.15,2013-09-15 06:04:00,
2013-09-15 00:10:00,51.9,45.3,29.91,West,261,1.0,1.0,78,0.00,,,0.00,0,Wunderground v.1.15,2013-09-15 06:10:00,
2013-09-15 00:16:00,51.9,44.9,29.91,West,261,1.0,1.0,77,0.00,,,0.00,0,Wunderground v.1.15,2013-09-15 06:16:00,
2013-09-15 00:22:00,52.0,45.4,29.91,West,261,0.0,0.0,78,0.00,,,0.00,0,Wunderground v.1.15,2013-09-15 06:22:00,
2013-09-15 00:28:00,52.2,45.2,29.91,West,261,0.0,3.0,77,0.00,,,0.00,0,Wunderground v.1.15,2013-09-15 06:28:00,
2013-09-15 00:34:00,52.2,45.5,29.91,SW,232,1.0,2.0,78,0.00,,,0.00,0,Wunderground v.1.15,2013-09-15 06:34:00,
2013-09-15 00:40:00,52.0,45.0,29.92,East,100,2.0,2.0,77,0.00,,,0.00,0,Wunderground v.1.15,2013-09-15 06:40:00,
2013-09-15 00:46:00,51.7,44.7,29.91,East,100,1.0,2.0,77,0.00,,,0.00,0,Wunderground v.1.15,2013-09-15 06:46:00,
2013-09-15 00:52:00,51.7,45.1,29.91,East,100,0.0,1.0,78,0.00,,,0.00,0,Wunderground v.1.15,2013-09-15 06:52:00,
2013-09-15 00:58:00,51.5,44.5,29.91,East,100,0.0,1.0,77,0.00,,,0.00,0,Wunderground v.1.15,2013-09-15 06:58:00,
2013-09-15 01:06:00,51.4,44.4,29.91,East,98,0.0,1.0,77,0.00,,,0.00,0,Wunderground v.1.15,2013-09-15 07:06:00,
2013-09-15 01:12:00,51.3,44.7,29.91,East,98,1.0,1.0,78,0.00,,,0.00,0,Wunderground v.1.15,2013-09-15 07:12:00,
2013-09-15 01:24:00,51.2,44.9,29.91,East,98,0.0,0.0,79,0.00,,,0.00,0,Wunderground v.1.15,2013-09-15 07:24:00,
2013-09-15 01:30:00,51.0,44.0,29.91,East,98,0.0,0.0,77,0.00,,,0.00,0,Wunderground v.1.15,2013-09-15 07:30:00,
2013-09-15 01:36:00,50.9,43.9,29.91,East,98,0.0,0.0,77,0.00,,,0.00,0,Wunderground v.1.15,2013-09-15 07:36:00,
2013-09-15 01:44:00,50.5,43.6,29.92,East,98,1.0,2.0,77,0.00,,,0.00,0,Wunderground v.1.15,2013-09-15 07:44:00,
2013-09-15 01:50:00,50.1,43.2,29.91,ESE,102,0.0,2.0,77,0.00,,,0.00,0,Wunderground v.1.15,2013-09-15 07:50:00,
2013-09-15 01:56:00,49.8,43.9,29.92,ESE,121,1.0,2.0,80,0.00,,,0.00,0,Wunderground v.1.15,2013-09-15 07:56:00,
2013-09-15 02:02:00,49.6,43.7,29.92,ESE,121,1.0,3.0,80,0.00,,,0.00,0,Wunderground v.1.15,2013-09-15 08:02:00,
2013-09-15 02:08:00,49.7,44.7,29.92,ESE,123,2.0,3.0,83,0.00,,,0.00,0,Wunderground v.1.15,2013-09-15 08:08:00,
2013-09-15 02:14:00,49.7,44.7,29.92,ESE,123,1.0,1.0,83,0.00,,,0.00,0,Wunderground v.1.15,2013-09-15 08:14:00,
2013-09-15 02:20:00,49.7,44.7,29.92,ESE,123,0.0,0.0,83,0.00,,,0.00,0,Wunderground v.1.15,2013-09-15 08:20:00,
2013-09-15 02:26:00,49.8,44.8,29.92,ESE,123,1.0,2.0,83,0.00,,,0.00,0,Wunderground v.1.15,2013-09-15 08:26:00,
2013-09-15 02:32:00,49.9,44.9,29.92,ESE,123,1.0,2.0,83,0.00,,,0.00,0,Wunderground v.1.15,2013-09-15 08:32:00,
2013-09-15 02:38:00,50.0,45.0,29.92,ESE,123,2.0,2.0,83,0.00,,,0.00,0,Wunderground v.1.15,2013-09-15 08:38:00,
2013-09-15 02:44:00,49.9,44.6,29.92,ESE,123,1.0,1.0,82,0.00,,,0.00,0,Wunderground v.1.15,2013-09-15 08:44:00,
2013-09-15 02:50:00,49.8,44.5,29.92,ESE,123,1.0,2.0,82,0.00,,,0.00,0,Wunderground v.1.15,2013-09-15 08:50:00,
2013-09-15 02:56:00,49.7,44.7,29.92,ESE,123,1.0,2.0,83,0.00,,,0.00,0,Wunderground v.1.15,2013-09-15 08:56:00,
2013-09-15 03:02:00,49.6,44.3,29.92,ESE,123,1.0,1.0,82,0.00,,,0.00,0,Wunderground v.1.15,2013-09-15 09:02:00,
2013-09-15 03:08:00,49.4,44.1,29.92,ESE,123,0.0,2.0,82,0.00,,,0.00,0,Wunderground v.1.15,2013-09-15 09:08:00,
2013-09-15 03:14:00,49.2,44.3,29.92,ESE,123,1.0,3.0,83,0.00,,,0.00,0,Wunderground v.1.15,2013-09-15 09:14:00,
2013-09-15 03:20:00,49.0,44.1,29.92,ESE,123,0.0,2.0,83,0.00,,,0.00,0,Wunderground v.1.15,2013-09-15 09:20:00,
2013-09-15 03:26:00,49.0,44.7,29.92,ESE,123,1.0,3.0,85,0.00,,,0.00,0,Wunderground v.1.15,2013-09-15 09:26:00,
2013-09-15 03:32:00,48.9,44.0,29.92,ESE,123,1.0,1.0,83,0.00,,,0.00,0,Wunderground v.1.15,2013-09-15 09:32:00,
2013-09-15 03:38:00,48.7,43.8,29.92,ESE,123,0.0,1.0,83,0.00,,,0.00,0,Wunderground v.1.15,2013-09-15 09:38:00,
2013-09-15 03:44:00,48.6,43.7,29.92,ESE,123,0.0,0.0,83,0.00,,,0.00,0,Wunderground v.1.15,2013-09-15 09:44:00,
2013-09-15 03:50:00,48.4,43.5,29.91,ESE,123,0.0,0.0,83,0.00,,,0.00,0,Wunderground v.1.15,2013-09-15 09:50:00,
2013-09-15 03:56:00,48.2,43.3,29.91,ESE,123,0.0,0.0,83,0.00,,,0.00,0,Wunderground v.1.15,2013-09-15 09:56:00,
2013-09-15 04:02:00,47.6,41.7,29.92,ESE,123,0.0,0.0,80,0.00,,,0.00,0,Wunderground v.1.15,2013-09-15 10:02:00,
2013-09-15 04:08:00,47.3,41.8,29.92,ESE,123,0.0,0.0,81,0.00,,,0.00,0,Wunderground v.1.15,2013-09-15 10:08:00,
2013-09-15 04:14:00,47.1,41.9,29.92,ESE,123,0.0,0.0,82,0.00,,,0.00,0,Wunderground v.1.15,2013-09-15 10:14:00,
2013-09-15 04:20:00,46.8,41.9,29.92,ESE,123,0.0,0.0,83,0.00,,,0.00,0,Wunderground v.1.15,2013-09-15 10:20:00,
2013-09-15 04:26:00,46.6,42.3,29.92,ESE,123,0.0,3.0,85,0.00,,,0.00,0,Wunderground v.1.15,2013-09-15 10:26:00,
2013-09-15 04:32:00,46.5,42.5,29.92,ESE,123,2.0,4.0,86,0.00,,,0.00,0,Wunderground v.1.15,2013-09-15 10:32:00,
2013-09-15 04:38:00,46.5,42.8,29.92,ESE,123,3.0,4.0,87,0.00,,,0.00,0,Wunderground v.1.15,2013-09-15 10:38:00,
2013-09-15 04:44:00,46.3,42.6,29.92,ESE,123,2.0,3.0,87,0.00,,,0.00,0,Wunderground v.1.15,2013-09-15 10:44:00,
2013-09-15 04:50:00,46.3,42.9,29.92,ESE,123,2.0,3.0,88,0.00,,,0.00,0,Wunderground v.1.15,2013-09-15 10:50:00,
2013-09-15 04:56:00,46.4,43.0,29.93,ESE,123,2.0,3.0,88,0.00,,,0.00,0,Wunderground v.1.15,2013-09-15 10:56:00,
2013-09-15 05:02:00,46.5,43.1,29.92,ESE,123,1.0,2.0,88,0.00,,,0.00,0,Wunderground v.1.15,2013-09-15 11:02:00,
2013-09-15 05:10:00,46.7,43.6,29.93,ESE,123,1.0,1.0,89,0.00,,,0.00,0,Wunderground v.1.15,2013-09-15 11:10:00,
2013-09-15 05:16:00,46.8,43.7,29.93,ESE,123,0.0,1.0,89,0.00,,,0.00,0,Wunderground v.1.15,2013-09-15 11:16:00,
2013-09-15 05:22:00,46.8,43.4,29.93,ESE,123,0.0,0.0,88,0.00,,,0.00,0,Wunderground v.1.15,2013-09-15 11:22:00,
2013-09-15 05:28:00,46.7,43.3,29.93,ESE,123,1.0,2.0,88,0.00,,,0.00,0,Wunderground v.1.15,2013-09-15 11:28:00,
2013-09-15 05:34:00,46.7,43.3,29.93,ESE,123,1.0,1.0,88,0.00,,,0.00,0,Wunderground v.1.15,2013-09-15 11:34:00,
2013-09-15 05:40:00,46.5,42.8,29.92,ESE,123,1.0,2.0,87,0.00,,,0.00,0,Wunderground v.1.15,2013-09-15 11:40:00,
2013-09-15 05:46:00,46.4,43.0,29.92,ESE,122,3.0,4.0,88,0.00,,,0.00,0,Wunderground v.1.15,2013-09-15 11:46:00,
2013-09-15 05:52:00,46.6,43.5,29.93,East,101,4.0,4.0,89,0.00,,,0.00,0,Wunderground v.1.15,2013-09-15 11:52:00,
2013-09-15 05:58:00,46.8,44.0,29.92,East,100,3.0,4.0,90,0.00,,,0.00,0,Wunderground v.1.15,2013-09-15 11:58:00,
2013-09-15 06:04:00,46.9,44.1,29.93,East,100,1.0,3.0,90,0.00,,,0.00,0,Wunderground v.1.15,2013-09-15 12:04:00,
2013-09-15 06:10:00,47.1,44.3,29.92,East,100,0.0,0.0,90,0.00,,,0.00,0,Wunderground v.1.15,2013-09-15 12:10:00,
2013-09-15 06:20:00,47.4,44.6,29.92,East,100,0.0,0.0,90,0.00,,,0.00,0,Wunderground v.1.15,2013-09-15 12:20:00,
2013-09-15 06:26:00,47.6,45.1,29.92,East,101,0.0,2.0,91,0.00,,,0.00,0,Wunderground v.1.15,2013-09-15 12:26:00,
2013-09-15 06:32:00,47.8,45.3,29.92,East,101,1.0,1.0,91,0.00,,,0.00,0,Wunderground v.1.15,2013-09-15 12:32:00,
2013-09-15 06:38:00,47.8,45.0,29.92,East,101,0.0,3.0,90,0.00,,,0.00,0,Wunderground v.1.15,2013-09-15 12:38:00,
2013-09-15 06:44:00,47.7,44.6,29.93,ESE,103,2.0,3.0,89,0.00,,,0.00,0,Wunderground v.1.15,2013-09-15 12:44:00,
2013-09-15 06:50:00,47.4,43.7,29.93,ESE,103,2.0,2.0,87,0.00,,,0.00,0,Wunderground v.1.15,2013-09-15 12:50:00,
2013-09-15 06:56:00,47.2,43.2,29.93,ESE,103,1.0,2.0,86,0.00,,,0.00,0,Wunderground v.1.15,2013-09-15 12:56:00,
2013-09-15 07:02:00,46.9,42.9,29.92,ESE,103,1.0,4.0,86,0.00,,,0.00,7,Wunderground v.1.15,2013-09-15 13:02:00,
2013-09-15 07:08:00,46.6,42.9,29.93,ESE,103,2.0,4.0,87,0.00,,,0.00,14,Wunderground v.1.15,2013-09-15 13:08:00,
2013-09-15 07:14:00,46.5,43.1,29.93,ESE,103,0.0,2.0,88,0.00,,,0.00,12,Wunderground v.1.15,2013-09-15 13:14:00,
2013-09-15 07:20:00,46.4,43.0,29.93,ESE,103,0.0,0.0,88,0.00,,,0.00,14,Wunderground v.1.15,2013-09-15 13:20:00,
2013-09-15 07:26:00,46.4,43.3,29.93,ESE,103,0.0,0.0,89,0.00,,,0.00,25,Wunderground v.1.15,2013-09-15 13:26:00,
2013-09-15 07:32:00,46.4,43.3,29.93,ESE,103,0.0,0.0,89,0.00,,,0.00,35,Wunderground v.1.15,2013-09-15 13:32:00,
2013-09-15 07:38:00,46.6,43.8,29.93,ESE,103,0.0,0.0,90,0.00,,,0.00,49,Wunderground v.1.15,2013-09-15 13:38:00,
2013-09-15 07:44:00,46.9,44.4,29.93,ESE,103,0.0,0.0,91,0.00,,,0.00,58,Wunderground v.1.15,2013-09-15 13:44:00,
2013-09-15 07:50:00,47.6,45.7,29.93,ESE,103,0.0,0.0,93,0.00,,,0.00,88,Wunderground v.1.15,2013-09-15 13:50:00,
2013-09-15 07:56:00,48.3,46.7,29.93,ESE,103,0.0,0.0,94,0.00,,,0.00,121,Wunderground v.1.15,2013-09-15 13:56:00,
2013-09-15 08:02:00,49.5,47.8,29.93,ESE,103,0.0,0.0,94,0.00,,,0.00,70,Wunderground v.1.15,2013-09-15 14:02:00,
2013-09-15 08:08:00,50.2,48.5,29.93,ESE,103,0.0,0.0,94,0.00,,,0.00,56,Wunderground v.1.15,2013-09-15 14:08:00,
2013-09-15 08:14:00,50.8,49.1,29.92,ESE,103,0.0,0.0,94,0.00,,,0.00,49,Wunderground v.1.15,2013-09-15 14:14:00,
2013-09-15 08:20:00,51.2,49.2,29.93,ESE,103,0.0,0.0,93,0.00,,,0.00,47,Wunderground v.1.15,2013-09-15 14:20:00,
2013-09-15 08:26:00,51.6,49.6,29.93,ESE,103,0.0,0.0,93,0.00,,,0.00,67,Wunderground v.1.15,2013-09-15 14:26:00,
2013-09-15 08:32:00,52.0,50.0,29.92,ESE,103,0.0,0.0,93,0.00,,,0.00,141,Wunderground v.1.15,2013-09-15 14:32:00,
2013-09-15 08:38:00,52.4,50.1,29.92,ESE,103,0.0,0.0,92,0.00,,,0.00,199,Wunderground v.1.15,2013-09-15 14:38:00,
2013-09-15 08:44:00,53.0,50.4,29.92,ESE,103,1.0,1.0,91,0.00,,,0.00,209,Wunderground v.1.15,2013-09-15 14:44:00,
2013-09-15 08:50:00,53.6,50.7,29.92,ESE,103,1.0,1.0,90,0.00,,,0.00,306,Wunderground v.1.15,2013-09-15 14:50:00,
2013-09-15 08:56:00,54.4,51.2,29.92,ESE,103,0.0,2.0,89,0.00,,,0.00,308,Wunderground v.1.15,2013-09-15 14:56:00,
2013-09-15 09:02:00,55.3,51.2,29.92,ESE,103,1.0,1.0,86,0.00,,,0.00,288,Wunderground v.1.15,2013-09-15 15:02:00,
2013-09-15 09:08:00,56.4,51.6,29.92,ESE,103,0.0,1.0,84,0.00,,,0.00,294,Wunderground v.1.15,2013-09-15 15:08:00,
2013-09-15 09:14:00,57.5,51.4,29.92,ESE,103,0.0,0.0,80,0.00,,,0.00,311,Wunderground v.1.15,2013-09-15 15:14:00,
2013-09-15 09:20:00,58.6,51.4,29.92,ESE,103,0.0,1.0,77,0.00,,,0.00,329,Wunderground v.1.15,2013-09-15 15:20:00,
2013-09-15 09:26:00,59.9,52.0,29.92,ESE,103,1.0,3.0,75,0.00,,,0.00,295,Wunderground v.1.15,2013-09-15 15:26:00,
2013-09-15 09:32:00,60.9,52.2,29.91,ESE,103,1.0,1.0,73,0.00,,,0.00,290,Wunderground v.1.15,2013-09-15 15:32:00,
2013-09-15 09:38:00,61.7,52.2,29.91,ESE,103,1.0,2.0,71,0.00,,,0.00,387,Wunderground v.1.15,2013-09-15 15:38:00,
2013-09-15 09:44:00,62.5,51.4,29.91,ENE,67,2.0,9.0,67,0.00,,,0.00,350,Wunderground v.1.15,2013-09-15 15:44:00,
2013-09-15 09:50:00,63.3,51.3,29.91,ENE,76,5.0,5.0,65,0.00,,,0.00,100,Wunderground v.1.15,2013-09-15 15:50:00,
2013-09-15 09:56:00,63.5,51.1,29.91,ENE,77,4.0,5.0,64,0.00,,,0.00,91,Wunderground v.1.15,2013-09-15 15:56:00,
2013-09-15 10:02:00,63.4,50.6,29.90,ENE,71,4.0,5.0,63,0.00,,,0.00,121,Wunderground v.1.15,2013-09-15 16:02:00,
2013-09-15 10:08:00,63.2,50.8,29.90,East,92,4.0,7.0,64,0.00,,,0.00,214,Wunderground v.1.15,2013-09-15 16:08:00,
2013-09-15 10:14:00,63.3,51.3,29.90,ENE,76,5.0,6.0,65,0.00,,,0.00,519,Wunderground v.1.15,2013-09-15 16:14:00,
2013-09-15 10:20:00,64.0,52.0,29.90,ENE,67,5.0,6.0,65,0.00,,,0.00,519,Wunderground v.1.15,2013-09-15 16:20:00,
2013-09-15 10:26:00,65.0,52.1,29.90,East,96,5.0,7.0,63,0.00,,,0.00,478,Wunderground v.1.15,2013-09-15 16:26:00,
2013-09-15 10:32:00,66.2,51.4,29.89,East,83,5.0,6.0,59,0.00,,,0.00,531,Wunderground v.1.15,2013-09-15 16:32:00,
2013-09-15 10:38:00,67.2,51.9,29.89,NE,50,5.0,6.0,58,0.00,,,0.00,508,Wunderground v.1.15,2013-09-15 16:38:00,
2013-09-15 10:44:00,68.2,51.9,29.89,East,80,6.0,9.0,56,0.00,,,0.00,578,Wunderground v.1.15,2013-09-15 16:44:00,
2013-09-15 10:50:00,69.0,51.2,29.88,ENE,61,7.0,12.0,53,0.00,,,0.00,589,Wunderground v.1.15,2013-09-15 16:50:00,
2013-09-15 10:56:00,69.6,51.7,29.88,ENE,78,8.0,12.0,53,0.00,,,0.00,596,Wunderground v.1.15,2013-09-15 16:56:00,
2013-09-15 11:02:00,70.2,51.2,29.88,ENE,77,7.0,9.0,51,0.00,,,0.00,578,Wunderground v.1.15,2013-09-15 17:02:00,
2013-09-15 11:08:00,70.7,51.7,29.88,ENE,76,6.0,9.0,51,0.00,,,0.00,645,Wunderground v.1.15,2013-09-15 17:08:00,
2013-09-15 11:14:00,71.4,51.8,29.88,ENE,58,4.0,8.0,50,0.00,,,0.00,712,Wunderground v.1.15,2013-09-15 17:14:00,
2013-09-15 11:20:00,72.1,51.3,29.87,ENE,58,7.0,9.0,48,0.00,,,0.00,754,Wunderground v.1.15,2013-09-15 17:20:00,
2013-09-15 11:26:00,72.5,51.1,29.87,NE,53,8.0,9.0,47,0.00,,,0.00,758,Wunderground v.1.15,2013-09-15 17:26:00,
2013-09-15 11:32:00,73.0,51.6,29.86,ENE,57,7.0,7.0,47,0.00,,,0.00,740,Wunderground v.1.15,2013-09-15 17:32:00,
2013-09-15 11:38:00,73.7,51.6,29.86,ENE,68,8.0,10.0,46,0.00,,,0.00,740,Wunderground v.1.15,2013-09-15 17:38:00,
2013-09-15 11:44:00,73.9,52.4,29.85,ENE,67,7.0,9.0,47,0.00,,,0.00,673,Wunderground v.1.15,2013-09-15 17:44:00,
2013-09-15 11:50:00,74.3,51.6,29.85,ENE,64,5.0,5.0,45,0.00,,,0.00,541,Wunderground v.1.15,2013-09-15 17:50:00,
2013-09-15 11:56:00,74.3,51.6,29.85,NE,53,5.0,6.0,45,0.00,,,0.00,181,Wunderground v.1.15,2013-09-15 17:56:00,
2013-09-15 12:02:00,73.1,51.1,29.85,East,94,7.0,11.0,46,0.00,,,0.00,207,Wunderground v.1.15,2013-09-15 18:02:00,
2013-09-15 12:08:00,72.1,50.8,29.85,NNE,28,8.0,11.0,47,0.00,,,0.00,220,Wunderground v.1.15,2013-09-15 18:08:00,
2013-09-15 12:14:00,71.4,50.7,29.84,NE,51,8.0,10.0,48,0.00,,,0.00,264,Wunderground v.1.15,2013-09-15 18:14:00,
2013-09-15 12:20:00,71.7,51.0,29.84,ENE,66,10.0,10.0,48,0.00,,,0.00,788,Wunderground v.1.15,2013-09-15 18:20:00,
2013-09-15 12:26:00,73.1,51.1,29.84,NE,42,11.0,14.0,46,0.00,,,0.00,728,Wunderground v.1.15,2013-09-15 18:26:00,
2013-09-15 12:32:00,74.4,51.1,29.84,ENE,73,11.0,15.0,44,0.00,,,0.00,703,Wunderground v.1.15,2013-09-15 18:32:00,
2013-09-15 12:38:00,74.9,50.9,29.83,ENE,59,12.0,15.0,43,0.00,,,0.00,670,Wunderground v.1.15,2013-09-15 18:38:00,
2013-09-15 12:44:00,75.1,51.7,29.83,ENE,74,12.0,17.0,44,0.00,,,0.00,664,Wunderground v.1.15,2013-09-15 18:44:00,
2013-09-15 12:50:00,75.4,50.7,29.83,East,90,13.0,16.0,42,0.00,,,0.00,756,Wunderground v.1.15,2013-09-15 18:50:00,
2013-09-15 12:56:00,75.7,51.6,29.83,East,83,13.0,16.0,43,0.00,,,0.00,773,Wunderground v.1.15,2013-09-15 18:56:00,
2013-09-15 13:02:00,75.9,51.8,29.83,ENE,69,12.0,12.0,43,0.00,,,0.00,724,Wunderground v.1.15,2013-09-15 19:02:00,
2013-09-15 13:08:00,76.3,51.5,29.83,NE,52,12.0,14.0,42,0.00,,,0.00,780,Wunderground v.1.15,2013-09-15 19:08:00,
2013-09-15 13:14:00,76.4,52.2,29.82,NE,56,13.0,13.0,43,0.00,,,0.00,819,Wunderground v.1.15,2013-09-15 19:14:00,
2013-09-15 13:20:00,76.8,52.0,29.82,ENE,66,12.0,12.0,42,0.00,,,0.00,807,Wunderground v.1.15,2013-09-15 19:20:00,
2013-09-15 13:26:00,77.3,51.8,29.81,NE,50,12.0,14.0,41,0.00,,,0.00,805,Wunderground v.1.15,2013-09-15 19:26:00,
2013-09-15 13:32:00,77.6,52.0,29.81,NE,40,12.0,12.0,41,0.00,,,0.00,744,Wunderground v.1.15,2013-09-15 19:32:00,
2013-09-15 13:38:00,77.6,52.0,29.81,NE,41,10.0,16.0,41,0.00,,,0.00,831,Wunderground v.1.15,2013-09-15 19:38:00,
2013-09-15 13:44:00,77.8,51.5,29.81,NE,55,10.0,14.0,40,0.00,,,0.00,499,Wunderground v.1.15,2013-09-15 19:44:00,
2013-09-15 13:50:00,77.4,51.2,29.80,NE,38,11.0,12.0,40,0.00,,,0.00,478,Wunderground v.1.15,2013-09-15 19:50:00,
2013-09-15 13:56:00,77.1,51.6,29.80,NE,50,12.0,14.0,41,0.00,,,0.00,918,Wunderground v.1.15,2013-09-15 19:56:00,
2013-09-15 14:04:00,77.5,51.3,29.79,ENE,67,12.0,16.0,40,0.00,,,0.00,756,Wunderground v.1.15,2013-09-15 20:04:00,
2013-09-15 14:10:00,77.6,52.0,29.79,ENE,76,12.0,12.0,41,0.00,,,0.00,775,Wunderground v.1.15,2013-09-15 20:10:00,
2013-09-15 14:16:00,77.6,51.4,29.79,NE,54,13.0,17.0,40,0.00,,,0.00,512,Wunderground v.1.15,2013-09-15 20:16:00,
2013-09-15 14:22:00,76.7,50.6,29.79,ENE,59,13.0,13.0,40,0.00,,,0.00,251,Wunderground v.1.15,2013-09-15 20:22:00,
2013-09-15 14:32:00,75.1,51.1,29.78,NE,51,13.0,17.0,43,0.00,,,0.00,527,Wunderground v.1.15,2013-09-15 20:32:00,
2013-09-15 14:38:00,75.2,51.2,29.78,ENE,65,14.0,17.0,43,0.00,,,0.00,652,Wunderground v.1.15,2013-09-15 20:38:00,
2013-09-15 14:44:00,76.1,50.0,29.78,ENE,71,15.0,17.0,40,0.00,,,0.00,364,Wunderground v.1.15,2013-09-15 20:44:00,
2013-09-15 14:50:00,76.2,50.1,29.77,ENE,62,15.0,15.0,40,0.00,,,0.00,299,Wunderground v.1.15,2013-09-15 20:50:00,
2013-09-15 14:56:00,75.9,50.5,29.77,East,89,13.0,15.0,41,0.00,,,0.00,450,Wunderground v.1.15,2013-09-15 20:56:00,
2013-09-15 15:02:00,76.0,51.9,29.77,ENE,75,11.0,12.0,43,0.00,,,0.00,821,Wunderground v.1.15,2013-09-15 21:02:00,
2013-09-15 15:08:00,77.3,50.4,29.77,East,84,10.0,15.0,39,0.00,,,0.00,807,Wunderground v.1.15,2013-09-15 21:08:00,
2013-09-15 15:14:00,78.3,49.1,29.77,ESE,111,13.0,19.0,36,0.00,,,0.00,837,Wunderground v.1.15,2013-09-15 21:14:00,
2013-09-15 15:20:00,78.9,49.7,29.76,East,92,15.0,15.0,36,0.00,,,0.00,824,Wunderground v.1.15,2013-09-15 21:20:00,
2013-09-15 15:26:00,78.6,47.9,29.76,East,97,14.0,15.0,34,0.00,,,0.00,211,Wunderground v.1.15,2013-09-15 21:26:00,
2013-09-15 15:32:00,77.4,48.3,29.76,East,80,13.0,16.0,36,0.00,,,0.00,239,Wunderground v.1.15,2013-09-15 21:32:00,
2013-09-15 15:38:00,76.7,48.5,29.76,East,98,14.0,18.0,37,0.00,,,0.00,299,Wunderground v.1.15,2013-09-15 21:38:00,
2013-09-15 15:44:00,76.5,48.3,29.76,ESE,114,13.0,14.0,37,0.00,,,0.00,777,Wunderground v.1.15,2013-09-15 21:44:00,
2013-09-15 15:50:00,77.7,48.6,29.75,ESE,106,12.0,16.0,36,0.00,,,0.00,754,Wunderground v.1.15,2013-09-15 21:50:00,
2013-09-15 15:56:00,78.4,48.5,29.76,ESE,102,14.0,20.0,35,0.00,,,0.00,213,Wunderground v.1.15,2013-09-15 21:56:00,
2013-09-15 16:02:00,78.2,49.8,29.75,ESE,108,14.0,18.0,37,0.00,,,0.00,262,Wunderground v.1.15,2013-09-15 22:02:00,
2013-09-15 16:08:00,78.2,49.8,29.75,ESE,119,15.0,18.0,37,0.00,,,0.00,459,Wunderground v.1.15,2013-09-15 22:08:00,
2013-09-15 16:14:00,78.1,48.2,29.75,SE,134,17.0,21.0,35,0.00,,,0.00,504,Wunderground v.1.15,2013-09-15 22:14:00,
2013-09-15 16:20:00,78.0,48.9,29.75,East,96,15.0,15.0,36,0.00,,,0.00,308,Wunderground v.1.15,2013-09-15 22:20:00,
2013-09-15 16:26:00,78.5,50.1,29.74,East,99,13.0,15.0,37,0.00,,,0.00,782,Wunderground v.1.15,2013-09-15 22:26:00,
2013-09-15 16:32:00,79.3,50.8,29.74,SE,140,13.0,15.0,37,0.00,,,0.00,230,Wunderground v.1.15,2013-09-15 22:32:00,
2013-09-15 16:38:00,78.6,50.9,29.74,East,86,12.0,17.0,38,0.00,,,0.00,160,Wunderground v.1.15,2013-09-15 22:38:00,
2013-09-15 16:44:00,77.3,50.4,29.74,ESE,119,12.0,18.0,39,0.00,,,0.00,167,Wunderground v.1.15,2013-09-15 22:44:00,
2013-09-15 16:50:00,77.0,50.8,29.74,East,95,12.0,12.0,40,0.00,,,0.00,418,Wunderground v.1.15,2013-09-15 22:50:00,
2013-09-15 16:56:00,76.9,50.7,29.74,SE,132,11.0,16.0,40,0.00,,,0.00,149,Wunderground v.1.15,2013-09-15 22:56:00,
2013-09-15 17:02:00,76.4,50.3,29.73,SE,137,11.0,12.0,40,0.00,,,0.00,128,Wunderground v.1.15,2013-09-15 23:02:00,
2013-09-15 17:12:00,75.4,50.1,29.73,SE,144,12.0,12.0,41,0.00,,,0.00,116,Wunderground v.1.15,2013-09-15 23:12:00,
2013-09-15 17:18:00,75.4,50.1,29.74,SSE,155,13.0,15.0,41,0.00,,,0.00,320,Wunderground v.1.15,2013-09-15 23:18:00,
2013-09-15 17:32:00,76.7,50.6,29.73,South,170,11.0,12.0,40,0.00,,,0.00,415,Wunderground v.1.15,2013-09-15 23:32:00,
2013-09-15 17:38:00,77.2,50.3,29.73,SE,130,11.0,12.0,39,0.00,,,0.00,394,Wunderground v.1.15,2013-09-15 23:38:00,
2013-09-15 17:46:00,77.4,49.8,29.73,SE,142,11.0,11.0,38,0.00,,,0.00,366,Wunderground v.1.15,2013-09-15 23:46:00,
2013-09-15 17:56:00,77.1,50.2,29.72,SSE,163,12.0,12.0,39,0.00,,,0.00,306,Wunderground v.1.15,2013-09-15 23:56:00,
2013-09-15 18:02:00,77.0,48.7,29.72,SSE,167,11.0,12.0,37,0.00,,,0.00,65,Wunderground v.1.15,2013-09-16 00:02:00,
2013-09-15 18:08:00,76.8,49.3,29.71,South,176,11.0,12.0,38,0.00,,,0.00,274,Wunderground v.1.15,2013-09-16 00:08:00,
2013-09-15 18:14:00,76.7,49.2,29.71,SSE,163,11.0,11.0,38,0.00,,,0.00,253,Wunderground v.1.15,2013-09-16 00:14:00,
2013-09-15 18:20:00,76.7,50.6,29.72,South,169,11.0,11.0,40,0.00,,,0.00,250,Wunderground v.1.15,2013-09-16 00:20:00,
2013-09-15 18:26:00,76.4,50.3,29.72,SSE,151,12.0,15.0,40,0.00,,,0.00,220,Wunderground v.1.15,2013-09-16 00:26:00,
2013-09-15 18:32:00,76.1,50.7,29.72,SE,144,13.0,13.0,41,0.00,,,0.00,91,Wunderground v.1.15,2013-09-16 00:32:00,
2013-09-15 18:38:00,75.7,50.3,29.72,SSE,157,10.0,14.0,41,0.00,,,0.00,120,Wunderground v.1.15,2013-09-16 00:38:00,
2013-09-15 18:44:00,75.2,49.9,29.72,SE,144,10.0,12.0,41,0.00,,,0.00,32,Wunderground v.1.15,2013-09-16 00:44:00,
2013-09-15 18:50:00,74.7,50.1,29.72,SE,142,10.0,15.0,42,0.00,,,0.00,16,Wunderground v.1.15,2013-09-16 00:50:00,
2013-09-15 18:56:00,74.2,49.6,29.72,SSE,152,10.0,15.0,42,0.00,,,0.00,12,Wunderground v.1.15,2013-09-16 00:56:00,
2013-09-15 19:02:00,73.8,49.9,29.72,SSE,152,10.0,14.0,43,0.00,,,0.00,11,Wunderground v.1.15,2013-09-16 01:02:00,
2013-09-15 19:08:00,73.4,50.2,29.72,SSE,167,11.0,14.0,44,0.00,,,0.00,7,Wunderground v.1.15,2013-09-16 01:08:00,
2013-09-15 19:14:00,73.2,50.0,29.72,SSE,148,9.0,10.0,44,0.00,,,0.00,7,Wunderground v.1.15,2013-09-16 01:14:00,
2013-09-15 19:20:00,73.0,49.8,29.73,SE,142,7.0,7.0,44,0.00,,,0.00,5,Wunderground v.1.15,2013-09-16 01:20:00,
2013-09-15 19:26:00,72.8,49.6,29.73,SSE,150,8.0,9.0,44,0.00,,,0.00,0,Wunderground v.1.15,2013-09-16 01:26:00,
2013-09-15 19:32:00,72.8,50.2,29.72,SE,146,10.0,10.0,45,0.00,,,0.00,0,Wunderground v.1.15,2013-09-16 01:32:00,
2013-09-15 19:38:00,72.7,50.1,29.73,South,180,9.0,10.0,45,0.00,,,0.00,0,Wunderground v.1.15,2013-09-16 01:38:00,
2013-09-15 19:44:00,72.6,50.0,29.73,SSW,194,7.0,10.0,45,0.00,,,0.00,0,Wunderground v.1.15,2013-09-16 01:44:00,
2013-09-15 19:50:00,72.3,50.4,29.73,SSW,212,7.0,7.0,46,0.00,,,0.00,0,Wunderground v.1.15,2013-09-16 01:50:00,
2013-09-15 19:56:00,71.9,50.6,29.74,SSW,192,6.0,7.0,47,0.00,,,0.00,0,Wunderground v.1.15,2013-09-16 01:56:00,
2013-09-15 20:02:00,71.3,50.6,29.74,South,189,6.0,6.0,48,0.00,,,0.00,0,Wunderground v.1.15,2013-09-16 02:02:00,
2013-09-15 20:08:00,70.9,50.2,29.74,SW,234,5.0,11.0,48,0.00,,,0.00,0,Wunderground v.1.15,2013-09-16 02:08:00,
2013-09-15 20:14:00,70.4,50.3,29.74,SSW,192,5.0,6.0,49,0.00,,,0.00,0,Wunderground v.1.15,2013-09-16 02:14:00,
2013-09-15 20:20:00,70.1,50.0,29.74,SSW,192,4.0,5.0,49,0.00,,,0.00,0,Wunderground v.1.15,2013-09-16 02:20:00,
2013-09-15 20:26:00,69.8,50.3,29.74,SSW,192,4.0,6.0,50,0.00,,,0.00,0,Wunderground v.1.15,2013-09-16 02:26:00,
2013-09-15 20:32:00,69.5,50.0,29.74,SSW,204,5.0,7.0,50,0.00,,,0.00,0,Wunderground v.1.15,2013-09-16 02:32:00,
2013-09-15 20:38:00,69.1,50.2,29.75,SSW,200,5.0,7.0,51,0.00,,,0.00,0,Wunderground v.1.15,2013-09-16 02:38:00,
2013-09-15 20:44:00,68.8,49.9,29.75,SSW,211,5.0,7.0,51,0.00,,,0.00,0,Wunderground v.1.15,2013-09-16 02:44:00,
2013-09-15 20:50:00,68.5,50.2,29.75,WSW,241,5.0,13.0,52,0.00,,,0.00,0,Wunderground v.1.15,2013-09-16 02:50:00,
2013-09-15 20:56:00,68.3,50.5,29.75,WSW,255,8.0,13.0,53,0.00,,,0.00,0,Wunderground v.1.15,2013-09-16 02:56:00,
2013-09-15 21:02:00,68.0,50.7,29.76,SSW,194,10.0,11.0,54,0.00,,,0.00,0,Wunderground v.1.15,2013-09-16 03:02:00,
2013-09-15 21:08:00,67.8,51.0,29.77,South,189,10.0,14.0,55,0.00,,,0.00,0,Wunderground v.1.15,2013-09-16 03:08:00,
2013-09-15 21:14:00,67.6,50.4,29.77,SSW,200,9.0,12.0,54,0.00,,,0.00,0,Wunderground v.1.15,2013-09-16 03:14:00,
2013-09-15 21:20:00,67.4,50.2,29.77,SW,219,7.0,7.0,54,0.00,,,0.00,0,Wunderground v.1.15,2013-09-16 03:20:00,
2013-09-15 21:26:00,67.4,50.2,29.77,SW,217,4.0,7.0,54,0.00,,,0.00,0,Wunderground v.1.15,2013-09-16 03:26:00,
2013-09-15 21:34:00,67.1,50.9,29.76,SW,226,2.0,6.0,56,0.00,,,0.00,0,Wunderground v.1.15,2013-09-16 03:34:00,
2013-09-15 21:42:00,66.5,51.7,29.76,SSW,194,5.0,5.0,59,0.00,,,0.00,0,Wunderground v.1.15,2013-09-16 03:42:00,
2013-09-15 21:50:00,65.8,52.4,29.76,SSW,200,4.0,4.0,62,0.00,,,0.00,0,Wunderground v.1.15,2013-09-16 03:50:00,
2013-09-15 22:00:00,65.0,52.1,29.75,SSW,202,2.0,2.0,63,0.00,,,0.00,0,Wunderground v.1.15,2013-09-16 04:00:00,
2013-09-15 22:04:00,64.7,51.8,29.75,SSW,202,2.0,3.0,63,0.00,,,0.00,0,Wunderground v.1.15,2013-09-16 04:04:00,
2013-09-15 22:10:00,64.2,51.3,29.74,SSW,202,1.0,1.0,63,0.00,,,0.00,0,Wunderground v.1.15,2013-09-16 04:10:00,
2013-09-15 22:16:00,63.8,51.8,29.74,SSW,202,1.0,1.0,65,0.00,,,0.00,0,Wunderground v.1.15,2013-09-16 04:16:00,
2013-09-15 22:18:00,63.7,51.7,29.75,SSW,202,1.0,1.0,65,0.00,,,0.00,0,Wunderground v.1.15,2013-09-16 04:18:00,
2013-09-15 22:24:00,63.4,51.4,29.75,SSW,202,0.0,1.0,65,0.00,,,0.00,0,Wunderground v.1.15,2013-09-16 04:24:00,
2013-09-15 22:30:00,63.0,51.9,29.75,SSW,202,0.0,0.0,67,0.00,,,0.00,0,Wunderground v.1.15,2013-09-16 04:30:00,
2013-09-15 22:36:00,62.7,51.6,29.75,SSW,202,0.0,0.0,67,0.00,,,0.00,0,Wunderground v.1.15,2013-09-16 04:36:00,
2013-09-15 22:38:00,62.5,51.4,29.75,SSW,202,0.0,0.0,67,0.00,,,0.00,0,Wunderground v.1.15,2013-09-16 04:38:00,
2013-09-15 22:44:00,62.0,51.3,29.74,SSW,202,0.0,2.0,68,0.00,,,0.00,0,Wunderground v.1.15,2013-09-16 04:44:00,
2013-09-15 22:50:00,61.4,51.1,29.74,South,187,1.0,2.0,69,0.00,,,0.00,0,Wunderground v.1.15,2013-09-16 04:50:00,
2013-09-15 22:56:00,60.9,50.7,29.74,SSE,158,4.0,6.0,69,0.00,,,0.00,0,Wunderground v.1.15,2013-09-16 04:56:00,
2013-09-15 23:02:00,60.7,51.2,29.73,SE,144,5.0,5.0,71,0.00,,,0.00,0,Wunderground v.1.15,2013-09-16 05:02:00,
2013-09-15 23:08:00,60.8,51.0,29.72,SE,136,7.0,9.0,70,0.00,,,0.00,0,Wunderground v.1.15,2013-09-16 05:08:00,
2013-09-15 23:14:00,61.4,50.7,29.72,SE,134,8.0,10.0,68,0.00,,,0.00,0,Wunderground v.1.15,2013-09-16 05:14:00,
2013-09-15 23:20:00,62.2,50.7,29.73,SW,221,8.0,8.0,66,0.00,,,0.00,0,Wunderground v.1.15,2013-09-16 05:20:00,
2013-09-15 23:26:00,62.4,51.7,29.73,SW,217,5.0,11.0,68,0.00,,,0.00,0,Wunderground v.1.15,2013-09-16 05:26:00,
2013-09-15 23:32:00,62.2,51.9,29.73,South,191,4.0,6.0,69,0.00,,,0.00,0,Wunderground v.1.15,2013-09-16 05:32:00,
2013-09-15 23:38:00,61.6,51.7,29.73,SSE,165,5.0,7.0,70,0.00,,,0.00,0,Wunderground v.1.15,2013-09-16 05:38:00,
2013-09-15 23:44:00,61.1,50.8,29.73,SSE,153,6.0,10.0,69,0.00,,,0.00,0,Wunderground v.1.15,2013-09-16 05:44:00,
2013-09-15 23:52:00,60.9,50.7,29.73,SSE,155,6.0,6.0,69,0.00,,,0.00,0,Wunderground v.1.15,2013-09-16 05:52:00,
2013-09-15 23:58:00,60.9,50.7,29.72,SSE,160,6.0,6.0,69,0.00,,,0.00,0,Wunderground v.1.15,2013-09-16 05:58:00,